Location: Blangy-Tronville
(49.8790°N, 2.4226°E)
Time: 01:53:43
(UTC+00:00)

COSMO-SKYMED 1 - Pass Details

Date: 18 November 2025
Orbit: 579 x 581 km, 97.9° (Epoch: 04 December)

Event Time Altitude Azimuth Distance (km) Brightness Sun altitude
Exits shadow 19:02:37 40° 290° (WNW) 861 3.6 -28.7°
Drops below altitude 10° 19:06:26 10° 222° (SW) 1,893 5.5 -29.3°
Sets 19:08:39 0° 215° (SW) 2,788 6.3 -29.6°
